This demonstration page uses our WeatherBlox Daily Observations layout. Learn more.

Left ArrowRight Arrow

Hourly Observations for August 1, 2016

Temp ( °F °C ) Dew Point ( °F °C ) Humidity (%) Winds ( mph kmh ) Pressure ( in mb ) Visibility ( mi km ) Precip ( " mm )
12:18 am 00:18 Clear 66 19 66 19 100 100 Calm 30.09 1019 10 16.0934 N/A
12:38 am 00:38 Clear 68 20 66 19 94 94 Calm 30.06 1018 10 16.0934 N/A
12:58 am 00:58 Clear 66 19 64 18 94 94 Calm 30.06 1018 10 16.0934 N/A
1:18 am 01:18 Clear 64 18 64 18 100 100 Calm 30.06 1018 7 11.26538 N/A
1:38 am 01:38 Clear 64 18 64 18 100 100 Calm 30.06 1018 7 11.26538 N/A
1:58 am 01:58 Clear 64 18 64 18 100 100 Calm 30.06 1018 10 16.0934 N/A
2:18 am 02:18 Clear 64 18 63 17 94 94 Calm 30.06 1018 10 16.0934 N/A
2:38 am 02:38 Clear 64 18 64 18 100 100 Calm 30.06 1018 7 11.26538 N/A
2:58 am 02:58 Clear 64 18 64 18 100 100 Calm 30.06 1018 5 8.0467 N/A
3:18 am 03:18 Clear 64 18 63 17 94 94 Calm 30.06 1018 10 16.0934 N/A
3:38 am 03:38 Clear 64 18 64 18 100 100 Calm 30.06 1018 2 3.21868 N/A
3:58 am 03:58 Mostly Cloudy 63 17 63 17 100 100 Calm 30.06 1018 0.5 0.80467 N/A
4:18 am 04:18 Clear 63 17 63 17 100 100 Calm 30.06 1018 7 11.26538 N/A
4:38 am 04:38 Clear 63 17 63 17 100 100 Calm 30.06 1018 3 4.82802 N/A
4:58 am 04:58 Mostly Cloudy 63 17 63 17 100 100 Calm 30.06 1018 1.5 2.41401 N/A
5:18 am 05:18 Mostly Cloudy 63 17 63 17 100 100 Calm 30.06 1018 0.25 0.402335 N/A
5:38 am 05:38 Mostly Cloudy 63 17 63 17 100 100 Calm 30.06 1018 0.75 1.207005 N/A
5:58 am 05:58 Clear 63 17 61 16 94 94 Calm 30.06 1018 2.5 4.02335 N/A
6:18 am 06:18 Clear 63 17 63 17 100 100 Calm 30.06 1018 5 8.0467 N/A
6:38 am 06:38 Mostly Cloudy 63 17 63 17 100 100 Calm 30.06 1018 1 1.60934 N/A
6:58 am 06:58 Mostly Cloudy 63 17 63 17 100 100 Calm 30.06 1018 0.25 0.402335 N/A
7:18 am 07:18 Cloudy 63 17 63 17 100 100 Calm 30.09 1019 5 8.0467 N/A
7:38 am 07:38 Mostly Cloudy 63 17 63 17 100 100 Calm 30.09 1019 0.25 0.402335 N/A
7:58 am 07:58 Partly Cloudy 64 18 64 18 100 100 Calm 30.06 1018 2.5 4.02335 N/A
8:18 am 08:18 Mostly Cloudy 66 19 66 19 100 100 Calm 30.09 1019 0.75 1.207005 N/A
8:38 am 08:38 Sunny 68 20 68 20 100 100 Calm 30.09 1019 2 3.21868 N/A
8:58 am 08:58 Sunny 70 21 70 21 100 100 Calm 30.09 1019 4 6.43736 N/A
9:18 am 09:18 Sunny 72 22 70 21 94 94 Calm 30.06 1018 5 8.0467 N/A
9:38 am 09:38 Sunny 73 23 70 21 89 89 ESE 3 6 30.06 1018 7 11.26538 N/A
9:58 am 09:58 Sunny 75 24 70 21 83 83 Calm 30.06 1018 10 16.0934 N/A
10:18 am 10:18 Sunny 75 24 70 21 83 83 Calm 30.06 1018 10 16.0934 N/A
10:39 am 10:39 Sunny 75 24 70 21 83 83 Calm 30.06 1018 10 16.0934 N/A
10:58 am 10:58 Sunny 77 25 70 21 79 79 Calm 30.06 1018 10 16.0934 N/A
11:18 am 11:18 Sunny 77 25 70 21 79 79 Calm 30.06 1018 10 16.0934 N/A
11:38 am 11:38 Sunny 79 26 70 21 74 74 Calm 30.06 1018 10 16.0934 N/A
11:58 am 11:58 Sunny 79 26 70 21 74 74 Calm 30.06 1018 10 16.0934 N/A
12:18 pm 12:18 Sunny 79 26 70 21 74 74 Calm 30.06 1018 10 16.0934 N/A
12:38 pm 12:38 Sunny 79 26 70 21 74 74 Calm 30.06 1018 10 16.0934 N/A
12:58 pm 12:58 Partly Cloudy 79 26 70 21 74 74 Calm 30.06 1018 10 16.0934 N/A
1:18 pm 13:18 Partly Cloudy 81 27 70 21 70 70 Calm 30.06 1018 10 16.0934 N/A
1:38 pm 13:38 Mostly Cloudy 81 27 70 21 70 70 E 3 6 30.06 1018 10 16.0934 N/A
1:58 pm 13:58 Mostly Cloudy 81 27 70 21 70 70 Calm 30.06 1018 10 16.0934 N/A
2:18 pm 14:18 Partly Cloudy 81 27 68 20 66 66 E 3 6 30.06 1018 10 16.0934 N/A
2:38 pm 14:38 Sunny 82 28 70 21 66 66 Calm 30.06 1018 10 16.0934 N/A
2:58 pm 14:58 Sunny 81 27 70 21 70 70 Calm 30.06 1018 10 16.0934 N/A
3:18 pm 15:18 Sunny 81 27 70 21 70 70 NNE 5 7 30.03 1017 10 16.0934 N/A
3:38 pm 15:38 Partly Cloudy 81 27 68 20 66 66 NE 3 6 30.03 1017 10 16.0934 N/A
3:58 pm 15:58 Partly Cloudy 82 28 70 21 66 66 NE 6 9 30.03 1017 10 16.0934 N/A
4:18 pm 16:18 Sunny 82 28 70 21 66 66 Calm 30.03 1017 10 16.0934 N/A
4:38 pm 16:38 Sunny 82 28 70 21 66 66 E 3 6 30 1016 10 16.0934 N/A
4:58 pm 16:58 Sunny 82 28 70 21 66 66 ENE 6 9 30 1016 10 16.0934 N/A
5:18 pm 17:18 Sunny 82 28 68 20 62 62 Calm 30 1016 10 16.0934 N/A
5:38 pm 17:38 Sunny 82 28 68 20 62 62 E 5 7 30 1016 10 16.0934 N/A
5:58 pm 17:58 Sunny 82 28 68 20 62 62 ESE 3 6 30 1016 10 16.0934 N/A
6:18 pm 18:18 Sunny 82 28 68 20 62 62 Calm 30 1016 10 16.0934 N/A
6:38 pm 18:38 Sunny 82 28 68 20 62 62 E 5 7 30 1016 10 16.0934 N/A
6:58 pm 18:58 Sunny 82 28 68 20 62 62 Calm 30 1016 10 16.0934 N/A
7:18 pm 19:18 Sunny 79 26 72 22 79 79 Calm 30 1016 10 16.0934 N/A
7:38 pm 19:38 Sunny 79 26 72 22 79 79 Calm 30 1016 10 16.0934 N/A
7:57 pm 19:57 Mostly Cloudy 79 26 70 21 74 74 NNE 6 9 30 1016 10 16.0934 N/A
7:58 pm 19:58 Sunny 81 27 72 22 74 74 Calm 30 1016 10 16.0934 N/A
8:18 pm 20:18 Sunny 81 27 72 22 74 74 Calm 30 1016 10 16.0934 N/A
8:38 pm 20:38 Sunny 77 25 72 22 83 83 S 5 7 30.03 1017 10 16.0934 N/A
8:58 pm 20:58 Clear 75 24 72 22 89 89 SSW 5 7 30.03 1017 10 16.0934 N/A
9:18 pm 21:18 Clear 73 23 70 21 89 89 Calm 30.03 1017 10 16.0934 N/A
9:38 pm 21:38 Clear 72 22 70 21 94 94 SSE 3 6 30.03 1017 10 16.0934 N/A
9:59 pm 21:59 Clear 72 22 68 20 88 88 Calm 30.03 1017 10 16.0934 N/A
10:18 pm 22:18 Clear 70 21 68 20 94 94 Calm 30.06 1018 10 16.0934 N/A
10:38 pm 22:38 Clear 70 21 68 20 94 94 Calm 30.06 1018 7 11.26538 N/A
10:59 pm 22:59 Clear 70 21 68 20 94 94 Calm 30.06 1018 7 11.26538 N/A
11:18 pm 23:18 Clear 68 20 68 20 100 100 Calm 30.09 1019 5 8.0467 N/A
11:38 pm 23:38 Clear 68 20 66 19 94 94 Calm 30.09 1019 7 11.26538 N/A
11:59 pm 23:59 Mostly Cloudy 68 20 68 20 100 100 Calm 30.09 1019 1.25 2.011675 N/A

Powered by AerisWeather